Flag for Mexico Weather past 2 weeks in Matamoros, Tamaulipas, Mexico

Now
83 °F

Partly cloudy.


Feels Like: 94 °F
Forecast: 80 / 90 °F
Wind: 12 mph from South

Location: Brownsville / South Padre Island International Airport

Current Time: Jun 30, 2015 at 12:23:35 AM

Latest Report: Jun 29, 2015 at 11:53 PM


Visibility: 8 mi

Pressure: 30.01 "Hg

Humidity: 88%

Dew point: 79 °F

Location of MatamorosLocation

Historic Weather in Matamoros — Graph

°F

Matamoros temperature yesterday

Maximum temperature yesterday: 91 °F (at 12:53 PM)
Minimum temperature yesterday: 77 °F (at 3:53 AM)
Average temperature yesterday: 84 °F

Past Weeks' High & Low Weather Summary

 TemperatureHumidityPressure
High96 °F (Jun 16, 2:53 PM)94% (Jun 15, 2:53 AM)30.12 "Hg (Jun 15, 2:53 AM)
Low76 °F (Jun 15, 5:53 AM)47% (Jun 16, 2:53 PM)29.77 "Hg (Jun 15, 6:53 PM)
Average84 °F77%29.97 "Hg
* Reported Jun 14 11:53 PM — Jun 29 11:00 PM, Matamoros, Weather by CustomWeather, © 2015

Note: Actual official high and low records may vary slightly from our data, if they occured in-between our weather recording intervals... More about our weather records

Advertising

Matamoros weather history for previous 24 hours

 ConditionsComfort  
Time TempWeatherWind HumidityBarometerVisibility
11:00 PM
Mon, Jun 29
83 °FPartly cloudy.9 mph88%29.99 "Hg8 mi
9:53 PM83 °FClear.12 mph85%29.96 "Hg9 mi
8:53 PM83 °FPassing clouds.8 mph85%29.94 "Hg9 mi
7:53 PM85 °FPassing clouds.14 mph77%29.93 "Hg8 mi
6:53 PM88 °FScattered clouds.15 mph67%29.94 "Hg9 mi
5:53 PM90 °FPassing clouds.17 mph61%29.94 "Hg9 mi
4:53 PM91 °FScattered clouds.18 mph57%29.95 "Hg10 mi
3:53 PM91 °FPartly sunny.20 mph60%29.95 "Hg10 mi
2:53 PM91 °FScattered clouds.20 mph60%29.97 "Hg10 mi
1:53 PM91 °FBroken clouds.21 mph57%29.99 "Hg10 mi
12:53 PM91 °FPassing clouds.18 mph57%30.00 "Hg10 mi
11:53 AM89 °FPassing clouds.20 mph61%30.01 "Hg10 mi
10:53 AM88 °FPassing clouds.15 mph65%30.01 "Hg10 mi
9:53 AM86 °FScattered clouds.13 mph72%30.01 "Hg9 mi
8:53 AM83 °FSunny.7 mph85%30.01 "Hg7 mi
7:53 AM79 °FSunny.6 mph90%29.99 "Hg8 mi
6:53 AM77 °FThundershowers. Clear.5 mph94%29.98 "Hg7 mi
5:53 AM77 °FClear.3 mph94%29.98 "Hg8 mi
4:53 AM77 °FClear.No wind94%29.97 "Hg8 mi
3:53 AM77 °FClear.6 mph94%29.96 "Hg9 mi
2:53 AM79 °FClear.3 mph90%29.97 "Hg8 mi
1:53 AM79 °FClear.5 mph94%29.98 "Hg7 mi
12:53 AM79 °FClear.5 mph94%29.99 "Hg7 mi
Weather by CustomWeather, © 2015

See weather overviewHow to use our weather pages